Location: Ambrosina
(19.9365°S, 43.9833°W)
Time: 01:05:13
(UTC+00:00)

CZ-2C R/B - Pass Details

Date: 11 May 2021
Orbit: 704 x 907 km, 98.0° (Epoch: 20 June)

Event Time Altitude Azimuth Distance (km) Brightness Sun altitude
Rises 21:45:13 0° 175° (S) 3,125 6.0 -18.1°
Reaches altitude 10° 21:47:31 10° 179° (S) 2,192 5.2 -18.6°
Maximum altitude 21:52:11 56° 257° (WSW) 846 3.5 -19.7°
Drops below altitude 10° 21:56:50 10° 334° (NNW) 2,185 5.9 -20.7°
Sets 21:59:08 0° 338° (NNW) 3,114 6.6 -21.3°
